Location: Sigmaringen
(48.0900°N, 9.2120°E)
Time: 22:00:02
(UTC+01:00)

ISS - Pass Details

Date: 06 January 2018
Orbit: 401 x 407 km, 51.6° (Epoch: 17 January)

Event Time Altitude Azimuth Distance (km) Brightness Sun altitude
Exits shadow 06:47:52 25° 307° (NW) 864 -2.7 -13.5°
Maximum altitude 06:49:23 44° 5° (N) 577 -3.2 -13.3°
Drops below altitude 10° 06:52:33 10° 79° (E) 1,468 0.0 -12.8°
Sets 06:54:42 0° 86° (E) 2,329 1.4 -12.4°
